This is the latest recevied weather packets stored in our database for station/object WZ9ZZZ-1. If no packets are shown the sender has not sent any weather packets the latest 10 day(s).
| Time | Temp. | Humidity | Pressure | Rain* | Wind** | Luminosity | Snow |
|---|---|---|---|---|---|---|---|
| 1777484103 | 28.89° C | 76% | 1017 hPa | 0 mm | - | 268 W/m² | - |
| 1777483798 | 28.89° C | 75% | 1017 hPa | 0 mm | - | 330 W/m² | - |
| 1777483496 | 28.89° C | 76% | 1017 hPa | 0 mm | - | 363 W/m² | - |
| 1777483190 | 29.44° C | 75% | 1017 hPa | 0 mm | - | 314 W/m² | - |
| 1777482887 | 29.44° C | 74% | 1017 hPa | 0 mm | - | 539 W/m² | - |
| 1777482583 | 29.44° C | 75% | 1017.3 hPa | 0 mm | - | 386 W/m² | - |
| 1777482280 | 29.44° C | 76% | 1017.1 hPa | 0 mm | - | 656 W/m² | - |
| 1777481977 | 28.89° C | 76% | 1017 hPa | 0 mm | - | 363 W/m² | - |
| 1777481675 | 28.89° C | 76% | 1017 hPa | 0 mm | - | 422 W/m² | - |
| 1777481372 | 28.89° C | 76% | 1017.1 hPa | 0 mm | - | 314 W/m² | - |
| 1777481068 | 28.89° C | 76% | 1017.3 hPa | 0 mm | - | 504 W/m² | - |
| 1777480765 | 28.89° C | 76% | 1017.5 hPa | 0 mm | - | 514 W/m² | - |
| 1777480462 | 28.33° C | 77% | 1017.1 hPa | 0 mm | - | 471 W/m² | - |
| 1777480158 | 28.33° C | 77% | 1017.5 hPa | 0 mm | - | 475 W/m² | - |
| 1777479855 | 27.78° C | 79% | 1017.1 hPa | 0 mm | - | 476 W/m² | - |
| 1777479552 | 28.33° C | 78% | 1017.2 hPa | 0 mm | - | 346 W/m² | - |
| 1777479249 | 28.33° C | 78% | 1017.2 hPa | 0 mm | - | 292 W/m² | - |
| 1777478946 | 28.89° C | 78% | 1017 hPa | 0 mm | - | 277 W/m² | - |
| 1777478642 | 28.89° C | 77% | 1016.9 hPa | 0 mm | - | 537 W/m² | - |
| 1777478339 | 28.89° C | 78% | 1016.8 hPa | 0 mm | - | 344 W/m² | - |
| 1777478035 | 28.33° C | 78% | 1016.8 hPa | 0 mm | - | 337 W/m² | - |
| 1777477730 | 27.78° C | 79% | 1016.8 hPa | 0 mm | - | 630 W/m² | - |
| 1777477428 | 27.78° C | 80% | 1016.8 hPa | 0 mm | - | 431 W/m² | - |
| 1777477124 | 27.22° C | 80% | 1016.9 hPa | 0 mm | - | 373 W/m² | - |
| 1777476821 | 27.22° C | 80% | 1016.9 hPa | 0 mm | - | 298 W/m² | - |
* Rain latest hour (hover to see other rain measurements)
** Current wind speed in m/s (hover to see current wind gust speed)